Sacramento, CA

10:17 AM PDT on August 19, 2017 (GMT -0700)
Sacramento Executive

Weather History for KSAC - October, 2013

Change the Weather History Date:

Thursday, October 31, 2013

  Actual Average Record
Temperature  
Mean Temperature 56 °F -  
Max Temperature 71 °F 71 °F 85 °F (1960)
Min Temperature 41 °F 47 °F 36 °F (2002)
Degree Days  
Heating Degree Days 9    
Cooling Degree Days 0    
Growing Degree Days 6 (Base 50)    
Moisture  
Dew Point 43 °F    
Average Humidity 68    
Maximum Humidity 100    
Minimum Humidity 36    
Precipitation  
Precipitation 0.00 in 0.05 in 0.40 in (2008)
Month to date precipitation 0.00 0.95  
Year to date precipitation 4.50 13.19  
Since 1 July precipitation 0.59  
Sea Level Pressure  
Sea Level Pressure 30.12 in    
Wind  
Wind Speed 0 mph (SSW)    
Max Wind Speed 7 mph    
Max Gust Speed 10 mph    
Visibility 10 miles    
Events      
T = Trace of Precipitation, MM = Missing Value Source: NWS Daily Summary

Daily Weather History Graph

Daily Weather History Graph

Search for Another Location

Airport or City:

Trip Planner

Search our weather history database for the weather conditions in past years. The results will help you decide how hot, cold, wet, or windy it might be!

Date:

Astronomy

Oct. 31, 2013 Rise Set
Actual Time 7:31 AM PDT 6:06 PM PDT
Civil Twilight 7:04 AM PDT 6:34 PM PDT
Nautical Twilight 6:33 AM PDT 7:05 PM PDT
Astronomical Twilight 6:02 AM PDT 7:36 PM PDT
Moon 4:28 AM PDT (10/31) 4:26 PM PDT (10/31)
Length of Visible Light 11h 29m
Length of Day
10h 34m
Waning Crescent, 9% of the Moon is Illuminated
Oct 31
Waning Crescent
Nov 3
New
Nov 9
First Quarter
Nov 17
Full
Nov 25
Last Quarter

Hourly Weather History & Observations

Time (PDT) Temp. Dew Point Humidity Pressure Visibility Wind Dir Wind Speed Gust Speed Precip Events Conditions
12:53 AM 46.9 °F 44.1 °F 90% 30.12 in 10.0 mi Calm Calm - N/A   Clear
1:53 AM 46.0 °F 43.0 °F 89% 30.12 in 10.0 mi Calm Calm - N/A   Clear
2:53 AM 44.1 °F 42.1 °F 93% 30.13 in 10.0 mi Calm Calm - N/A   Clear
3:53 AM 44.1 °F 42.1 °F 93% 30.12 in 10.0 mi Calm Calm - N/A   Clear
4:53 AM 43.0 °F 42.1 °F 97% 30.13 in 10.0 mi Calm Calm - N/A   Clear
5:53 AM 42.1 °F 41.0 °F 96% 30.14 in 7.0 mi Calm Calm - N/A   Clear
6:53 AM 41.0 °F 39.9 °F 96% 30.15 in 10.0 mi Calm Calm - N/A   Clear
7:53 AM 42.1 °F 41.0 °F 96% 30.16 in 7.0 mi Calm Calm - N/A   Clear
8:53 AM 48.9 °F 44.1 °F 83% 30.18 in 10.0 mi Calm Calm - N/A   Clear
9:53 AM 54.0 °F 45.0 °F 72% 30.19 in 10.0 mi SSE 3.5 mph - N/A   Clear
10:53 AM 59.0 °F 44.1 °F 58% 30.18 in 10.0 mi Calm Calm - N/A   Clear
11:53 AM 63.0 °F 43.0 °F 48% 30.17 in 10.0 mi WSW 3.5 mph - N/A   Clear
12:53 PM 64.9 °F 42.1 °F 43% 30.15 in 10.0 mi Variable 4.6 mph - N/A   Clear
1:53 PM 66.9 °F 42.1 °F 40% 30.12 in 10.0 mi Calm Calm - N/A   Clear
2:53 PM 69.1 °F 42.1 °F 38% 30.10 in 10.0 mi Calm Calm - N/A   Clear
3:53 PM 70.0 °F 41.0 °F 35% 30.09 in 10.0 mi Calm Calm - N/A   Clear
4:53 PM 70.0 °F 41.0 °F 35% 30.07 in 10.0 mi Calm Calm - N/A   Clear
5:53 PM 66.9 °F 42.1 °F 40% 30.07 in 10.0 mi Calm Calm - N/A   Clear
6:53 PM 57.9 °F 44.1 °F 60% 30.08 in 10.0 mi Calm Calm - N/A   Clear
7:53 PM 55.9 °F 44.1 °F 64% 30.09 in 10.0 mi Calm Calm - N/A   Clear
8:53 PM 52.0 °F 45.0 °F 77% 30.09 in 10.0 mi Calm Calm - N/A   Clear
9:53 PM 52.0 °F 45.0 °F 77% 30.10 in 10.0 mi Calm Calm - N/A   Clear
10:53 PM 50.0 °F 45.0 °F 83% 30.11 in 10.0 mi Calm Calm - N/A   Clear
11:53 PM 48.9 °F 45.0 °F 86% 30.11 in 10.0 mi Calm Calm - N/A   Clear